Location: Newark
(40.3500°N, 15.2333°E)
Time: 22:19:44
(UTC+00:00)

Vanguard 2 - Pass Details

Date: 04 February 2020
Orbit: 552 x 2939 km, 32.9° (Epoch: 19 February)

Event Time Altitude Azimuth Distance (km) Brightness Sun altitude
Rises 03:40:02 0° 194° (SSW) 6,285 12.0 -28.1°
Reaches altitude 10° 03:45:35 10° 180° (S) 5,534 11.8 -27.0°
Maximum altitude 03:57:01 22° 138° (SE) 4,819 12.0 -24.9°
Drops below altitude 10° 04:08:24 10° 97° (E) 5,571 13.0 -22.7°
Sets 04:13:53 0° 84° (E) 6,344 13.7 -21.7°
